Vertical_Velocity
5 12 6 1 -13 18 30 -10 -22 43 8 4 -0 1 -4 4 7 5 5 5 -1 0 1 1 -1 -0 -1 -1 -2 -3 2 -3 -1 1 -2 0 -3 3 0 7 2 1 -3
-30 6 5 -10 7 3 20 11 -7 1 4 -2 4 5 4 2 6 1 3 2 1 2 -1 2 2 -2 3 -2 -2 1 -4 -1 -1 2 2 -5 -4 2 2 3 -1 -2 1
5 4 4 -0 -2 9 3 -11 15 26 -1 8 4 5 7 11 4 1 3 3 5 7 6 1 4 2 3 -5 1 3 -1 -4 -1 1 -1 -3 1 4 4 -2 -0 -0 -0
9 13 3 -5 -4 -8 -4 7 -44 64 23 8 3 1 -0 -5 3 4 5 2 1 -2 -4 5 2 2 -1 -3 6 9 7 -12 7 9 -3 3 2 1 2 1 3 3 1
-2 10 5 -5 3 5 12 3 14 -22 97 19 32 3 10 11 7 2 2 5 5 3 2 -4 -6 -1 5 4 16 19 11 6 10 -9 1 -11 1 -2 2 3 1 3 1
10 8 -4 -7 -14 -17 -16 -22 -1 17 -13 3 0 8 4 8 8 4 4 -2 8 -1 4 -1 -3 -7 -6 -8 -3 4 4 0 -1 0 -35 1 0 -1 -4 1 7 1 2
12 -5 3 -12 -7 -25 -5 -13 -0 2 -12 -8 -14 22 -9 -18 -22 -3 -2 2 11 9 6 2 -3 -10 -8 -12 6 4 -16 -11 -20 -6 9 -2 1 1 -0 -1 5 3 0
3 9 3 -12 8 3 -15 -8 -7 -11 -12 -11 1 -11 -24 23 -5 1 -3 -5 2 -4 6 2 1 1 -17 -28 -3 -1 -1 -8 -4 4 -4 -6 3 1 3 2 -2 4 -3
-3 9 5 5 6 5 -13 6 5 4 1 -7 -11 -12 -16 1 7 2 -2 -2 -14 -1 -6 4 -2 16 -30 -10 2 -6 8 6 -0 0 2 2 5 2 2 3 1 -4 -2
16 -1 1 5 7 7 7 8 3 -2 -1 3 13 2 -4 5 2 -26 -16 3 -3 -41 -11 14 -18 -25 -8 -0 8 -16 5 14 4 0 3 1 2 4 5 -1 -4 -2 -0
-10 -0 -0 -1 -8 -1 3 2 4 5 -0 11 7 3 28 12 2 11 -6 -27 12 -10 -0 17 5 3 -5 -4 16 6 9 2 -2 5 4 0 5 0 -3 1 5 -1 2
2 2 6 3 -1 1 11 4 2 5 0 13 17 0 4 3 7 1 8 11 11 7 2 4 -0 5 7 9 2 4 -0 -1 9 -2 3 -6 -7 -0 -3 2 0 -5 -7
-1 -7 -5 -1 0 2 -8 -5 -16 -1 0 2 8 4 0 16 2 6 -4 1 -2 -11 -1 7 5 1 1 -2 1 2 2 1 1 -1 10 -1 3 1 -0 5 0 -0 -1
5 10 3 -7 -5 2 1 6 2 -6 -8 -1 9 4 5 2 -1 1 -6 -1 5 -4 4 -0 3 1 -5 -2 4 1 -1 4 5 0 -0 1 -2 3 -2 3 -3 0 1
-1 -1 3 6 11 2 5 -3 -1 5 8 -0 -12 -1 -6 -5 2 8 1 -5 3 -0 -0 3 3 -2 2 -2 1 4 4 4 -1 1 -4 -1 -1 -2 1 3 0 1 2
6 5 -0 -1 -5 -1 1 -3 -5 3 0 -0 -1 -2 -20 -18 -5 2 4 -3 -4 1 1 2 1 -2 1 2 -2 0 6 -4 5 -3 -2 1 2 -1 -3 -0 -1 5 6
-1 -2 0 3 7 5 -3 -1 1 6 1 3 -4 -4 2 11 8 1 -1 4 -5 0 -0 -5 -2 2 -2 1 1 -0 3 4 4 -1 -4 -1 -1 -3 -3 2 2 -0 1
1 -3 -3 -1 4 -2 -3 -6 -1 2 -0 0 4 7 5 5 4 0 2 -3 -1 -3 1 3 1 0 -1 2 0 3 7 -4 1 4 -1 2 -2 -3 0 -7 1 -2 -2
-1 5 5 -7 -6 1 2 6 0 -3 0 4 4 5 4 4 0 5 3 -1 3 -3 -1 1 2 1 -1 3 1 -4 0 -4 -1 1 -3 1 4 1 3 1 -3 -1 1
-4 -7 -3 6 5 -5 -11 -1 6 -2 0 -1 -3 1 5 -0 1 -6 -3 0 -5 -3 0 -0 4 5 5 4 -1 1 -0 -3 1 -5 1 4 2 -8 -7 -1 -4 -6 8
-9 -6 -5 -6 -8 -9 -5 -1 -4 -3 -4 -8 -7 -3 -3 -3 5 1 -0 -6 -3 -5 -5 -3 -0 0 1 2 -2 -4 2 -5 5 1 0 -3 -2 -1 5 -3 -5 6 -6
-3 -1 -3 -4 -5 1 0 2 -2 -5 -9 -7 -6 -1 1 0 1 -4 -4 -7 -5 -1 -4 7 0 1 2 3 1 5 -5 -4 -0 -3 -2 -5 3 2 -2 5 3 -8 1
2 -1 -4 -3 1 -3 -9 -4 -4 2 1 4 3 -0 0 -1 -5 7 2 -4 -2 -2 4 -10 -1 -1 -4 7 0 -3 3 -1 -2 1 -4 0 -3 -2 7 2 2 -0 -5
3 -1 -0 -0 -3 -7 -9 -7 -2 -3 -3 1 5 7 1 -4 -5 -6 -6 2 1 3 3 0 4 4 12 6 3 5 -3 3 -4 0 4 -3 2 -1 2 -3 1 -2 1
-2 -4 -3 -4 -1 1 -1 -4 -7 -5 -1 5 7 2 1 -1 4 5 -1 -5 -1 4 1 -3 5 9 11 5 -2 -3 3 0 2 4 -0 -2 -4 4 -4 0 2 -0 -6
3 5 2 -1 -3 -4 -2 -2 -1 -2 -5 -4 -5 -4 -3 2 1 1 -2 -1 -0 2 1 -0 -2 -4 5 4 4 4 1 -2 3 -3 -1 1 -2 -2 -1 0 -3 -3 -3
Height
3028 3035 3039 3041 3042 3046 3050 3062 3065 3067 3078 3082 3087 3093 3100 3109 3116 3124 3131 3136 3140 3145 3149 3153 3156 3159 3162 3164 3167 3168 3169 3170 3170 3171 3172 3172 3173 3173 3172 3171 3170 3171 3170
3025 3034 3034 3038 3039 3040 3044 3054 3056 3062 3074 3082 3086 3094 3100 3107 3114 3119 3126 3131 3136 3142 3147 3150 3153 3155 3158 3161 3164 3165 3166 3167 3167 3167 3168 3169 3170 3167 3167 3167 3166 3166 3165
3027 3031 3032 3035 3037 3039 3041 3048 3051 3058 3066 3078 3085 3091 3098 3103 3109 3116 3124 3129 3135 3139 3143 3146 3149 3152 3155 3158 3160 3160 3162 3162 3164 3165 3166 3165 3165 3162 3162 3164 3163 3162 3161
3025 3028 3030 3032 3036 3038 3044 3047 3054 3055 3061 3073 3082 3090 3097 3101 3108 3115 3121 3125 3129 3132 3136 3139 3143 3146 3149 3154 3155 3157 3157 3159 3161 3161 3162 3161 3161 3162 3159 3159 3158 3158 3157
3023 3027 3032 3032 3034 3040 3043 3048 3051 3055 3057 3067 3079 3088 3094 3100 3104 3111 3117 3122 3126 3129 3133 3134 3138 3141 3143 3147 3149 3150 3152 3155 3156 3147 3155 3156 3158 3159 3157 3155 3153 3153 3152
3022 3027 3030 3031 3034 3040 3043 3046 3052 3056 3057 3062 3069 3079 3089 3093 3099 3105 3112 3117 3122 3126 3129 3131 3133 3135 3138 3142 3144 3145 3147 3148 3151 3152 3146 3151 3153 3153 3152 3152 3149 3147 3146
3021 3025 3029 3033 3037 3038 3043 3048 3051 3052 3058 3063 3068 3074 3084 3090 3096 3103 3107 3113 3119 3122 3125 3126 3128 3130 3132 3134 3135 3139 3141 3138 3144 3145 3145 3146 3146 3146 3146 3146 3146 3143 3142
3021 3026 3028 3032 3036 3040 3043 3049 3052 3054 3056 3061 3066 3072 3079 3080 3090 3098 3102 3108 3112 3117 3118 3120 3122 3124 3128 3131 3131 3133 3134 3136 3137 3139 3139 3139 3141 3140 3139 3139 3139 3137 3134
3020 3026 3030 3033 3035 3038 3043 3046 3050 3054 3055 3060 3067 3071 3075 3079 3085 3092 3096 3101 3107 3106 3103 3109 3114 3111 3120 3122 3124 3127 3128 3130 3132 3134 3133 3134 3134 3134 3134 3133 3132 3130 3129
3021 3023 3027 3031 3034 3037 3041 3044 3049 3052 3057 3062 3064 3069 3072 3075 3080 3082 3089 3091 3101 3105 3100 3104 3104 3105 3108 3114 3116 3119 3122 3126 3127 3127 3127 3128 3129 3129 3128 3127 3126 3123 3121
3019 3021 3024 3025 3030 3038 3041 3044 3047 3051 3054 3058 3061 3066 3069 3071 3075 3077 3079 3087 3092 3094 3096 3098 3099 3102 3105 3108 3112 3114 3118 3119 3120 3121 3121 3121 3122 3122 3122 3121 3118 3116 3115
3020 3021 3023 3025 3031 3036 3040 3043 3047 3051 3053 3056 3058 3063 3067 3070 3072 3077 3081 3086 3088 3089 3093 3095 3096 3098 3101 3104 3107 3109 3110 3112 3113 3114 3114 3115 3116 3116 3115 3115 3111 3109 3107
3024 3024 3024 3026 3030 3034 3036 3039 3043 3047 3050 3054 3055 3059 3063 3067 3069 3072 3076 3079 3082 3087 3089 3091 3092 3094 3095 3097 3100 3103 3102 3105 3106 3107 3108 3110 3110 3110 3109 3106 3104 3103 3100
3028 3029 3030 3031 3033 3033 3034 3037 3038 3042 3045 3048 3052 3056 3058 3062 3066 3068 3071 3075 3078 3081 3083 3085 3087 3088 3089 3092 3095 3095 3096 3097 3100 3101 3102 3103 3103 3103 3102 3100 3098 3096 3094
3027 3028 3030 3030 3029 3031 3033 3035 3036 3038 3040 3044 3045 3049 3052 3056 3061 3064 3066 3070 3073 3074 3077 3079 3080 3080 3082 3085 3087 3088 3089 3091 3094 3095 3096 3097 3096 3096 3095 3094 3092 3089 3088
3027 3029 3029 3029 3029 3031 3033 3032 3035 3035 3035 3040 3043 3045 3048 3051 3058 3061 3063 3065 3068 3069 3071 3072 3073 3074 3077 3079 3080 3082 3084 3086 3088 3088 3089 3089 3088 3087 3088 3086 3084 3083 3080
3029 3029 3029 3030 3032 3032 3033 3034 3035 3034 3035 3038 3041 3043 3046 3051 3054 3056 3058 3059 3062 3064 3065 3067 3068 3068 3071 3073 3074 3076 3077 3078 3080 3080 3080 3081 3080 3079 3080 3079 3079 3076 3075
3029 3030 3031 3032 3033 3034 3034 3035 3035 3033 3035 3038 3042 3043 3045 3047 3049 3051 3052 3053 3054 3058 3059 3061 3062 3063 3065 3067 3069 3071 3072 3073 3074 3073 3073 3073 3074 3072 3072 3072 3070 3067 3066
3027 3028 3030 3031 3032 3033 3034 3031 3030 3031 3034 3037 3038 3041 3042 3044 3045 3046 3047 3048 3051 3052 3055 3055 3057 3057 3059 3061 3062 3064 3066 3066 3067 3066 3066 3066 3066 3065 3065 3063 3062 3062 3059
3022 3023 3023 3025 3028 3029 3028 3029 3027 3028 3030 3031 3035 3038 3037 3040 3039 3040 3041 3043 3044 3047 3049 3050 3051 3052 3053 3054 3054 3056 3056 3057 3058 3059 3059 3059 3058 3057 3058 3056 3055 3056 3051
3018 3018 3018 3019 3020 3020 3021 3023 3025 3026 3026 3027 3028 3030 3030 3032 3032 3033 3034 3036 3037 3039 3042 3043 3044 3046 3046 3046 3046 3048 3047 3049 3052 3051 3051 3052 3051 3051 3050 3048 3047 3047 3044
3016 3016 3015 3014 3013 3014 3015 3015 3016 3020 3020 3021 3021 3020 3021 3021 3023 3024 3026 3028 3028 3030 3033 3033 3036 3037 3037 3039 3039 3039 3041 3040 3043 3043 3045 3044 3044 3042 3044 3042 3039 3038 3037
3013 3013 3012 3012 3010 3010 3009 3010 3009 3011 3013 3013 3013 3013 3012 3010 3015 3014 3016 3018 3020 3021 3023 3024 3029 3030 3029 3030 3027 3030 3030 3032 3035 3036 3037 3035 3037 3037 3036 3035 3033 3030 3029
3008 3008 3009 3009 3009 3008 3007 3007 3007 3006 3007 3007 3007 3006 3004 3004 3005 3005 3008 3009 3011 3012 3013 3016 3018 3020 3018 3017 3020 3020 3022 3024 3025 3028 3027 3028 3030 3032 3028 3028 3025 3023 3021
3002 3003 3004 3005 3004 3004 3003 3002 3001 3001 3001 3000 2998 2997 2997 2997 2996 2998 2999 3001 3004 3004 3006 3009 3010 3010 3010 3010 3012 3012 3014 3015 3017 3018 3022 3021 3023 3021 3019 3018 3017 3016 3015
2996 2998 2999 3000 2999 2998 2998 2996 2995 2994 2994 2992 2991 2990 2990 2989 2990 2991 2994 2995 2997 2997 2999 3000 2999 3002 3003 3001 3003 3004 3006 3008 3010 3011 3014 3013 3013 3012 3010 3009 3009 3008 3009